Back to catalog

THORAD AGENA D DEB

AliveVLEO
NORAD 4938·DEBRIS·🇺🇸 United States

Launched Sep 30, 1969 from Vandenberg Space Force Base

Loading…

Next Passes (next 24 hours)

TLE

FreshSource: Space-Track

Epoch: Sep 14, 2026, 04:02 UTC

1 04938U 69082HJ  26257.16857557  .00006093  00000-0  55760-3 0  9999
2 04938  70.1201 173.1600 0012940 283.4260  76.5456 14.95386454986988

Track THORAD AGENA D DEB in real time with AllMySat

Download on the App Store